Location: Marsån
(66.4167°N, 22.2833°E)
Time: 09:53:56
(UTC+00:00)

IRIDIUM 103 - Pass Details

Date: 24 February 2024
Orbit: 776 x 779 km, 86.4° (Epoch: 15 April)

Event Time Altitude Azimuth Distance (km) Brightness Sun altitude
Rises 17:28:58 0° 171° (S) 3,261 7.4 -13.1°
Reaches altitude 10° 17:31:20 10° 168° (SSE) 2,337 6.6 -13.4°
Maximum altitude 17:36:28 61° 90° (E) 890 4.3 -13.9°
Drops below altitude 10° 17:41:39 10° 11° (N) 2,351 6.8 -14.4°
Sets 17:44:02 0° 8° (N) 3,282 7.6 -14.6°
